Погода Ордынское

Погода Ордынское : погода сейчас, прогноз погоды и архив. Всё, что Вы хотите узнать о погоде Ордынское!

Хотите узнать прогноз погоды Ордынское? Тогда Вам сюда: Погода Ордынское

Поиск расширенной информации на нашем сайте:

Другие новости

Новости СМИ2

Главная страница сайта

Новости сайта

03.07.2017

Напоминаем, что на нашем специализированном сайте Метеоцентр.Азия вы можете получить высокодетализированные автоматические прогнозы погоды по пунктам России, СНГ и мира в авиационном формате (включающие направление и скорость ветра, видимость, явления погоды, количество и форму облачности, нижнюю и верхнюю границу облачности).

Рекомендуем: Деаэратор молока комплект оборудования по подготовке молока.

Погода Ордынское - сегодня

Время (UTC), дата Ветер
(°,м/с) 
Видим.   Явления Облачность Т
(°С)
Тd
(°С)
f(%) Тe
(°С)
Pmin
(гПа)
dP
(гПа)
Po
(мм)
O2
(г/м3)
Тmin Tmax R s Состояние
почвы
03 21.02.18 тихо ()   20000 м    10/0 верхняя 
[Cs]
-14.5 -16.6 84 -15  1029.2  -0.8  758  324  -17.6         
06 21.02.18 100 (В) 20000 м    10/0 верхняя 
[Cc]
-5.2 -11.5 61 -5  1026.9  -1.6  757  312           
09 21.02.18 110 (В) 20000 м    10/0 верхняя 
[Cs]
-2.1 -10.7 52 -3  1024.4  -2.2  756  308           
12 21.02.18 100 (В) 20000 м    8/0 верхняя 
[Cc]
-5.5 -11.8 61 -5  1023  -1.6  754  311    -2       
15 21.02.18 090 (В) 20000 м    ясно 
-7.9 -12.3 71 -8  1020.7  -2.4  753  313           
18 21.02.18 070 (В) 20000 м    10/0 средняя 
[Ac und]
-7.9 -11.9 73 -9  1018.4  -2.3  751  313           
21 21.02.18 110 (В) 20000 м    6/0 средняя 
[Ac As]
-7.3 -11.8 70 -9  1015.5  -2.8  749  311           
00 22.02.18 150 (ЮВ) 20000 м    8/0 средняя 
[Ac As]
-5.9 -11.5 65 -7  1013.8  -1.6  748  309  -8.5      21  неравномерный
мокрый или
старый снег
100% 
03 22.02.18 180 (Ю) 4000 м  слаб. снег  10/10 600 м 
[Ns]
-5.5 -7.9 83 -7  1013.7  -0.1  748  308           
09 22.02.18 230 (ЮЗ) 5{11}  20000 м  позёмок{снег}  8/4 1000 м верхняя 
[Sc|Cs]
-5.1 -9 74 -9  1016.8  2.5  750  309           
12 22.02.18 230 (ЮЗ) 4{12}  20000 м  {снег}  ясно 
-9.6 -13.3 74 -14  1020.7  3.6  753  315    -3.5  0.6     
15 22.02.18 220 (ЮЗ) 20000 м    ясно 
-12.4 -15.2 80 -16  1023.7  2.7  755  320           
18 22.02.18 220 (ЮЗ) 20000 м    ясно 
-14 -15.9 85 -18  1025.1  1.3  756  322           
21 22.02.18 230 (ЮЗ) 20000 м    ясно 
-14.8 -16.7 85 -17  1025.5  0.4  756  323           
00 23.02.18 230 (ЮЗ) 20000 м    8/0 верхняя 
[Cs]
-14.8 -16.8 85 -17  1025  -0.6  755  323  -15.1      21  неравномерный
мокрый или
старый снег
100% 
03 23.02.18 230 (ЮЗ) 20000 м    10/0 средняя 
[Ac As]
-11.9 -14.1 84 -14  1024  -0.8  755  319           
06 23.02.18 220 (ЮЗ) 4000 м  слаб. снег  10/0 средняя 
[As op]
-10.4 -13 81 -15  1023.3  -0.6  754  317           
09 23.02.18 230 (ЮЗ) 20000 м  позёмок{снег}  10/0 средняя, верхняя 
[Ac As|Cc]
-9.6 -13.8 71 -14  1023.2  754  316           
12 23.02.18 230 (ЮЗ) 20000 м  {снег}  9/0 средняя, верхняя 
[Ac As|Cc]
-11.5 -14.9 76 -13  1023.6  0.3  755  319    -9.1  0.7     
15 23.02.18 230 (ЮЗ) 20000 м    10/0 верхняя 
[Cs]
-12.4 -15.1 80 -16  1023.7  755  320           
18 23.02.18 230 (ЮЗ) 20000 м    10/0 средняя, верхняя 
[Ac As|Ci sp]
-13.2 -15.4 83 -15  1023.4  -0.3  754  321           
21 23.02.18 тихо ()   20000 м    10/0 верхняя 
[Cs]
-13.8 -15.8 85 -14  1023.2  -0.3  754  321           
00 24.02.18 тихо ()   20000 м    10/0 верхняя 
[Cs]
-16.7 -18.7 84 -17  1023  -0.4  754  325  -16.7      21  неравномерный
мокрый или
старый снег
100% 
06 24.02.18 290 (З) 4000 м  слаб. снег  10/6 1500 м верхняя 
[Sc|Cs]
-13.1 -16.1 78 -13  1022.9  0.3  754  320           
09 24.02.18 300 (СЗ) 20000 м  {снег}  8/0 верхняя 
[Cs]
-10.1 -14.4 71 -10  1022  -0.7  753  317           
Время (UTC), дата Ветер
(°,м/с) 
Видим.   Явления Облачность Т
(°С)
Тd
(°С)
f(%) Тe
(°С)
Pmin
(гПа)
dP
(гПа)
Po
(мм)
O2
(г/м3)
Тmin Tmax R s Состояние
почвы

Для получения пояснительной информации подведите курсор к названию столбца.

ПОГОДА Ордынское - архив

Всё, что Вы хотите узнать о погоде Ордынское - удобно и подробно!

Выберите нужную дату (начиная с 1 января 2015* года) и нажмите кнопку "Найти".
Будут отображены архивные сводки погоды по пункту Ордынское, начиная с указанной даты.


Отображать данные в формате CSV (для использования в таблицах Excel)


Внимание! Наш архив погоды предназначен исключительно для личного некоммерческого использования в познавательных целях. Если Вам необходимы официальные справки о состоянии погоды (для производственных, юридических, коммерческих и т.п. целей), обращайтесь в органы Росгидромета.

*Примечание: данная дата относится к архиву по метеостанциям СССР (Россия, СНГ, Балтия).
Архив по метеостанциям Зарубежной Европы и Азии (кроме Китая) хранится 10 дней, по другим регионам земного шара (Китай, Африка, Америка, Австралия, Океания) - 1 день.

Ордынское - район местоположения метеостанции


Название, широта, долгота, высота метеостанции:
Ордынское 54.4°ш. 81.9°д. 134 м над ур. моря [Российская Федерация]

Дополнительная информация

В oтличие oт бoльшинства пoгoдных сайтoв мы публикуем пoдрoбную метеoинфoрмацию в детальнoм прoфессиoнальнoм фoрмате.

Характеристики температуры и влажнoсти вoздуха измеряются на высoте 2 м в тени вдали oт зданий и деревьев.
Скoрoсть ветра измеряется на высoте 10 м (на урoвне рoста челoвека скoрoсть ветра ниже в 1.5-2 раза). Если метеoстанция нахoдится в гoрoде или в лесу, тo скoрoсть ветра занижена на 2-4 м/с пo сравнению с oткрытым местoм. Скoрoсть ветра над акватoриями крупных рек и oзёр, а также на вершинах хoлмoв на 2-5 м/с выше, чем в oбычных услoвиях.
Атмoсфернoе давление в разных тoчках местнoсти мoжет значительнo oтличаться oт давления на метеoстанции, в зависимoсти oт услoвий рельефа (при пoдъёме на 10 м давление пoнижается примернo на 1 мм рт.ст.).